Showing default

3CAT-5/A (TYVAK-0161), 46292

Orbit data source: Space-Track

3CAT-5/A (TYVAK-0161), 46292 is a payload satellite owned by UPC (ES) in SSO that was launched on Thu, 03 Sep 2020 UTC via a VEGA launch vehicle from the French Guiana (FRGUI). Payload-class satellites include a variety of spacecraft equipped with specific instruments for various scientific and technological missions. These include communications satellites like Starlink; space stations such as the ISS; scientific satellites like the Hubble; Earth observation satellites from companies like Planet Labs, Umbra, and HawkEye 360; GPS; miniature CubeSats for education and research; and military/defense satellites.

Loading next visibility...
Identifier
46292, 2020-061W
Orbit
SSO
Country
Flag of ESES / SPN
Related business
Manufacturer
UPC
Mission
Non-operational Amateur Technology
Bus & Motor
CUBESAT 6U, Unknown motor
Mass
~10 kg wet, ~10 kg dry
Launch date (UTC)
2020-09-03 (5 years ago)
Launch vehicle
VEGA
Launch site
French Guiana (FRGUI)
Object type
Payload
Rocket body
Debris
Shape & HBR
Box, Unknown HBR
Radar Cross Section
0.080 m², Medium (>0.1 m² and < 1m²)

Expand to show TLE details & history
Last TLE update: 12 hours ago

TLE from 12 hours ago
0 3CAT-5/A (TYVAK-0161)
1 46292U 20061W   25342.63233655  .00019783  00000-0  50623-3 0  9998
2 46292  97.2704  41.3376 0003539  93.4924 266.6727 15.39447102291643
Epoch: 2025-12-08T15:10Z
TLE epoch observation values (Epoch: 2025-12-08T15:10:33.877Z)
Latitude
-0.00004°
Longitude
96.06787°
Altitude
451.005 km
Speed
7.642 km/s
True Right ascension
02h 45m 21s
True Declination
0° 00' 00"
Sunlit
Object was in full shadow at epoch
Visualization orbit readout
Latitude
Unknown
Longitude
Unknown
Altitude
Unknown
Speed
Unknown
Apparent Right ascension
Unknown
Apparent Declination
Unknown
Sunlit
N/A
Visualization observer readout
Local Sidereal Time
01:29:12
Azimuth
Unknown
Elevation
Unknown
Doppler factor
Unknown
Orbital elements
Apogee altitude
447.092 km
Perigee altitude
442.263 km
Semi-major axis
6,822.814 km
Eccentricity
0.00035
Inclination
97.2704°
RAAN
41.3376°
Arg. of periapsis
93.4924°
True anomaly
266.63222°
Mean anomaly
266.6727°
Eccentric anomaly
266.65246°
Mean motion
3.85122 °/min
Orbital period
93.48 mins
BSTAR
0.00050623
Loading maneuver chart data...
Computing Atmospheric mass density...

Documentation

Showing up to 5 results
|